Location: Bailleul
(50.3375°N, 2.8513°E)
Time: 05:36:21
(UTC+00:00)

COSMOS 2455 - Pass Details

Date: 19 April 2021
Orbit: 902 x 907 km, 67.1° (Epoch: 09 May)

Event Time Altitude Azimuth Distance (km) Brightness Sun altitude
Exits shadow 23:03:47 18° 249° (WSW) 2,080 4.6 -27.4°
Maximum altitude 23:08:04 47° 316° (NW) 1,193 3.7 -27.5°
Drops below altitude 10° 23:13:52 10° 30° (NNE) 2,601 5.8 -27.7°
Sets 23:16:30 0° 37° (NE) 3,546 6.6 -27.8°
